Flag for Germany Weather past 2 weeks in Rheinfelden (Baden), Baden-Württemberg, Germany

48 °F

Broken clouds.

Feels Like: 42 °F
Forecast: 36 / 52 °F
Wind: 15 mph from West

Location: Bale-Mulhouse

Current Time: Oct 13, 2015 at 7:50:18 PM

Latest Report: Oct 13, 2015 at 7:00 PM

Visibility: 4 mi

Pressure: 29.98 "Hg

Humidity: 71%

Dew point: 39 °F

Location of Rheinfelden (Baden)Location

Historic Weather in Rheinfelden (Baden) — Graph


Rheinfelden (Baden) temperature yesterday

Maximum temperature yesterday: 59 °F (at 4:00 PM)
Minimum temperature yesterday: 41 °F (at 7:00 AM)
Average temperature yesterday: 50 °F

Past Weeks' High & Low Weather Summary

High72 °F (Oct 3, 4:00 PM)100% (Sep 30, 5:30 AM)30.39 "Hg (Sep 30, 5:30 AM)
Low36 °F (Sep 30, 7:30 AM)37% (Sep 29, 2:00 PM)29.71 "Hg (Oct 6, 9:00 AM)
Average54 °F79%30.06 "Hg
* Reported Sep 28 6:00 PM — Oct 13 6:00 PM, Rheinfelden (Baden), Weather by CustomWeather, © 2015

Note: Actual official high and low records may vary slightly from our data, if they occured in-between our weather recording intervals... More about our weather records


Rheinfelden (Baden) weather history for previous 24 hours

Time TempWeatherWind HumidityBarometerVisibility
6:00 PM
Tue, Oct 13
48 °FBroken clouds.18 mph76%29.95 "Hg4 mi
5:30 PM50 °FBroken clouds.17 mph71%29.95 "Hg5 mi
5:00 PM54 °FPartly sunny.15 mph67%29.95 "Hg6 mi
4:30 PM55 °FBroken clouds.15 mph63%29.92 "HgN/A
4:00 PM55 °FBroken clouds.15 mph63%29.92 "HgN/A
3:30 PM55 °FScattered clouds.10 mph67%29.92 "HgN/A
3:00 PM55 °FBroken clouds.12 mph67%29.92 "HgN/A
2:30 PM54 °FPartly sunny.9 mph67%29.92 "HgN/A
2:00 PM55 °FBroken clouds.8 mph72%29.92 "HgN/A
1:30 PM55 °FBroken clouds.9 mph72%29.92 "HgN/A
1:00 PM55 °FBroken clouds.3 mph72%29.92 "Hg6 mi
12:30 PM55 °FBroken clouds.2 mph72%29.92 "Hg5 mi
12:00 PM54 °FBroken clouds.2 mph72%29.92 "Hg5 mi
11:30 AM52 °FPartly sunny.1 mph77%29.92 "Hg5 mi
11:00 AM50 °FPartly sunny.1 mph76%29.92 "Hg5 mi
10:30 AM48 °FPartly sunny.1 mph82%29.95 "Hg5 mi
10:00 AM46 °FPartly sunny.No wind87%29.95 "Hg5 mi
9:30 AM46 °FBroken clouds.1 mph87%29.95 "Hg4 mi
9:00 AM45 °FBroken clouds.No wind93%29.92 "Hg4 mi
8:30 AM45 °FPartly cloudy.1 mph93%29.92 "Hg4 mi
8:00 AM45 °FPassing clouds.1 mph93%29.92 "Hg5 mi
7:30 AM46 °FPassing clouds.3 mph87%29.92 "Hg5 mi
7:00 AM45 °FPassing clouds.2 mph93%29.92 "Hg5 mi
6:30 AM45 °FPassing clouds.2 mph93%29.92 "Hg4 mi
6:00 AM43 °FPartly cloudy.3 mph93%29.92 "Hg4 mi
5:30 AM43 °FPassing clouds.3 mph93%29.92 "Hg4 mi
5:00 AM43 °FClear.3 mph93%29.92 "Hg4 mi
4:30 AM43 °FMostly cloudy.3 mph93%29.92 "Hg4 mi
4:00 AM43 °FClear.3 mph93%29.92 "Hg4 mi
3:30 AM43 °FClear.3 mph93%29.95 "Hg4 mi
3:00 AM43 °FClear.1 mph93%29.95 "Hg5 mi
2:30 AM45 °FClear.2 mph87%29.95 "Hg6 mi
2:00 AM43 °FClear.No wind93%29.95 "Hg6 mi
1:30 AM45 °FClear.3 mph87%29.95 "Hg6 mi
1:00 AM45 °FClear.3 mph93%29.95 "Hg10 mi
12:30 AM45 °FPartly cloudy.No wind87%29.95 "HgN/A
12:00 AM45 °FPassing clouds.5 mph87%29.95 "HgN/A
11:30 PM
Mon, Oct 12
46 °FPassing clouds.3 mph87%29.95 "HgN/A
11:00 PM46 °FPassing clouds.5 mph87%29.98 "HgN/A
10:30 PM46 °FPassing clouds.5 mph87%29.98 "HgN/A
10:00 PM48 °FClear.5 mph82%29.98 "Hg10 mi
9:30 PM48 °FClear.5 mph82%29.95 "Hg10 mi
9:00 PM48 °FClear.5 mph82%29.95 "Hg10 mi
8:30 PM48 °FClear.6 mph82%29.95 "Hg10 mi
8:00 PM50 °FClear.7 mph76%29.95 "Hg10 mi
7:30 PM50 °FSunny.6 mph76%29.95 "Hg10 mi
7:00 PM52 °FSunny.7 mph77%29.95 "Hg10 mi
Weather by CustomWeather, © 2015

See weather overviewHow to use our weather pages